"Pseudo-MPEC" for ZTF10En

Created 2026 Jul 17 1:35:07 UT using Find_Orb

Click here for an explanation of pseudo-MPECs

 
 Astrometry: 
     ZTF10En*0C2026 07 11.40116721 47 54.153+24 57 17.68   ~7CF5 19.75gUNEOCPI41
     ZTF10En 0C2026 07 11.40151421 47 52.899+24 57 10.29   ~7CF5 19.75gUNEOCPI41

Station data:
(I41) Palomar Mountain--ZTF  (N33.357336 W116.859780)  US/California.
   Observers B. T. Bolin, Z. T. F. Collaboration. Measurers B. T. Bolin,
   Z.-Y. Lin, F. J. Masci. 1.2-m f/2.4 Schmidt.

Orbital elements:  ZTF10En
   Perihelion 2026 Oct 14.351036 +/- 58.8 TT =  8:25:29.5 (JD 2461327.851036)
Epoch 2026 Jul 11.0 TT = JDT 2461232.5   Earth MOID: 0.0241   Me: 0.0472
M 182.498580989 +/- 120             (J2000 ecliptic)             AutoNEOCP
n   1.861557310 +/- 0.928           Peri.  357.394905 +/- 70
a   0.654463014 +/- 0.217           Node   110.077764 +/- 60
e   0.59257272 +/- 0.21             Incl.  102.029575 +/- 50
P   0.529/193.383d         H 23.86  G  0.15   U 12.7  SR
q 0.266646079 +/- 0.306    Q 1.042279949 +/- 18.4
From 2 observations 2026 July 11 (30.0 sec); mean residual 0".01
Residuals in arcseconds: 
260711 I41  .01+  .00     260711 I41  .01+  .00     

Ephemerides (geocentric):
Date (UTC) HH   RA             Dec           delta  r     elong  mag " sig PA
---- --------  ------------   ------------  ------ ------ -----  --- --------
2026 07 17 02  13 44 30.373   -33 26 33.99  .08875 1.0378 101.6 21.3  44d 107
2026 07 17 03  13 43 40.471   -33 27 52.66  .08961 1.0378 101.4 21.3  44d 107
2026 07 17 04  13 42 51.507   -33 29 08.64  .09048 1.0377 101.2 21.3  44d 107
2026 07 17 05  13 42 03.457   -33 30 22.03  .09135 1.0377 101.0 21.3  44d 107
2026 07 17 06  13 41 16.297   -33 31 32.92  .09222 1.0376 100.8 21.4  44d 107
2026 07 17 07  13 40 30.004   -33 32 41.43  .09309 1.0376 100.6 21.4  44d 107
2026 07 17 08  13 39 44.554   -33 33 47.65  .09396 1.0375 100.5 21.4  44d 107
2026 07 17 09  13 38 59.927   -33 34 51.66  .09484 1.0375 100.3 21.4  44d 107
2026 07 17 10  13 38 16.101   -33 35 53.56  .09571 1.0374 100.1 21.5  44d 107
2026 07 17 11  13 37 33.056   -33 36 53.42  .09658 1.0374  99.9 21.5  44d 107
2026 07 17 12  13 36 50.771   -33 37 51.32  .09746 1.0373  99.8 21.5  44d 107
2026 07 17 13  13 36 09.229   -33 38 47.34  .09833 1.0372  99.6 21.5  44d 107
2026 07 17 14  13 35 28.409   -33 39 41.55  .09921 1.0372  99.4 21.5  44d 107
2026 07 17 15  13 34 48.295   -33 40 34.02  .10008 1.0371  99.3 21.6  44d 107
2026 07 17 16  13 34 08.868   -33 41 24.81  .10096 1.0371  99.1 21.6  44d 107
2026 07 17 17  13 33 30.113   -33 42 13.98  .10184 1.0370  98.9 21.6  44d 107
2026 07 17 18  13 32 52.012   -33 43 01.61  .10271 1.0370  98.8 21.6  44d 107
2026 07 17 19  13 32 14.551   -33 43 47.73  .10359 1.0369  98.6 21.7  44d 107
2026 07 17 20  13 31 37.712   -33 44 32.41  .10447 1.0369  98.5 21.7  44d 107
2026 07 17 21  13 31 01.483   -33 45 15.70  .10535 1.0368  98.3 21.7  44d 107
2026 07 17 22  13 30 25.847   -33 45 57.65  .10623 1.0368  98.2 21.7  44d 107
2026 07 17 23  13 29 50.792   -33 46 38.31  .10711 1.0367  98.0 21.7  43d 107
2026 07 18 00  13 29 16.304   -33 47 17.73  .10799 1.0366  97.9 21.8  43d 107
2026 07 18 01  13 28 42.370   -33 47 55.94  .10887 1.0366  97.7 21.8  43d 107
2026 07 18 02  13 28 08.976   -33 48 33.00  .10975 1.0365  97.6 21.8  43d 107
2026 07 18 03  13 27 36.110   -33 49 08.93  .11063 1.0365  97.5 21.8  43d 107
2026 07 18 04  13 27 03.761   -33 49 43.79  .11151 1.0364  97.3 21.8  43d 107
2026 07 18 05  13 26 31.917   -33 50 17.61  .11239 1.0364  97.2 21.9  43d 107
2026 07 18 06  13 26 00.566   -33 50 50.42  .11328 1.0363  97.1 21.9  43d 107
2026 07 18 07  13 25 29.698   -33 51 22.26  .11416 1.0362  96.9 21.9  43d 107
2026 07 18 08  13 24 59.301   -33 51 53.16  .11504 1.0362  96.8 21.9  43d 107
2026 07 18 09  13 24 29.366   -33 52 23.15  .11593 1.0361  96.7 21.9  43d 106
2026 07 18 10  13 23 59.881   -33 52 52.27  .11681 1.0361  96.5 22.0  43d 106
2026 07 18 11  13 23 30.838   -33 53 20.54  .11769 1.0360  96.4 22.0  43d 106
2026 07 18 12  13 23 02.227   -33 53 48.00  .11858 1.0359  96.3 22.0  43d 106
2026 07 18 13  13 22 34.039   -33 54 14.66  .11946 1.0359  96.1 22.0  43d 106
2026 07 18 14  13 22 06.264   -33 54 40.56  .12035 1.0358  96.0 22.0  43d 106
2026 07 18 15  13 21 38.893   -33 55 05.72  .12123 1.0358  95.9 22.1  43d 106
2026 07 18 16  13 21 11.919   -33 55 30.16  .12212 1.0357  95.8 22.1  43d 106
2026 07 18 17  13 20 45.333   -33 55 53.91  .12301 1.0356  95.7 22.1  43d 106
2026 07 18 18  13 20 19.127   -33 56 17.00  .12389 1.0356  95.5 22.1  43d 106
2026 07 18 19  13 19 53.293   -33 56 39.43  .12478 1.0355  95.4 22.1  43d 106
2026 07 18 20  13 19 27.823   -33 57 01.23  .12566 1.0355  95.3 22.1  43d 106
2026 07 18 21  13 19 02.709   -33 57 22.43  .12655 1.0354  95.2 22.2  43d 106
2026 07 18 22  13 18 37.946   -33 57 43.04  .12744 1.0353  95.1 22.2  43d 106
2026 07 18 23  13 18 13.525   -33 58 03.08  .12833 1.0353  95.0 22.2  43d 106
2026 07 19 00  13 17 49.440   -33 58 22.57  .12921 1.0352  94.9 22.2  43d 106
2026 07 19 01  13 17 25.684   -33 58 41.52  .13010 1.0351  94.7 22.2  43d 106